Content
SEND FEEDBACK

Daily
Averages
Monthly
Summary
Thailand

PHUKET, THAILAND


Home > Asia > Thailand
Elevation: 33 feet     Latitude: 08 07N     Longitude: 098 19E

WEATHER
 
SELECT A DAY
Number of Records: 236,101;   Date Range: 7/1/96 - 12/17/14
 
SHARE

PRINT THIS DATA

[ ← Previous Day ]
WEATHER ALMANAC - APRIL 8, 2013
[ Next Day → ]
[ °C ]   °F
Weather ElementAverageHighLow
Temperature85.1 °F90 °F (1:00 pm)79 °F (7:00 am)
Dewpoint74 °F76 °F (1:00 pm)71.6 °F (1:00 am)
Humidity69 %85 % (7:00 am)57 % (1:00 pm)
Barometer29.78 in29.86 in (10:30 pm)29.71 in (4:00 am)
Wind Speed10.3 mph17.3 mph (2:30 pm)
Weather ElementAverage
Visibility3.8 mi
Wind DirectionWNW (287.2 °)

Weather ElementTotal
Precipitation---
Cooling Degree Days19.5 (Base 65)
Growing Degree Days34.5 (Base 50)
Averaged from 50 records on April 8, 2013
WEATHER CONDITIONS BREAKOUT
WIND DIRECTION BREAKOUT
WEATHER BY HOUR - APRIL 8, 2013
[ °C ]   °F
Local TimeTemperatureDewpointHumidityBarometerVisibilityWind DirectionWind SpeedGust SpeedPrecipitationEventsConditions
12:30 AM84.2 °F73.4 °F70 %29.80 in3.1 miWNW (290°)10.4 mphMostly Cloudy
1:00 AM85.0 °F75.0 °F65 %29.75 in6.0 miNW (320°)4.6 mphMist
1:00 AM84.2 °F71.6 °F66 %29.80 in3.1 miWNW (290°)10.4 mphMostly Cloudy
1:30 AM82.4 °F73.4 °F74 %29.77 in3.1 miWNW (290°)9.2 mphMostly Cloudy
2:00 AM82.4 °F73.4 °F74 %29.77 in3.1 miWNW (290°)8.1 mphMostly Cloudy
2:30 AM82.4 °F73.4 °F74 %29.77 in3.1 miWNW (290°)6.9 mphMostly Cloudy
3:00 AM82.4 °F73.4 °F74 %29.74 in3.1 miWNW (290°)8.1 mphMostly Cloudy
3:30 AM82.4 °F73.4 °F74 %29.74 in3.1 miWNW (290°)10.4 mphMostly Cloudy
4:00 AM82.4 °F73.4 °F74 %29.71 in3.1 miWNW (300°)8.1 mphMostly Cloudy
4:30 AM80.6 °F73.4 °F79 %29.71 in3.1 miNorthMostly Cloudy
5:00 AM82.4 °F73.4 °F74 %29.74 in3.1 miNW (310°)6.9 mphMostly Cloudy
5:30 AM80.6 °F73.4 °F79 %29.74 in3.1 miNorth (350°)6.9 mphMostly Cloudy
6:00 AM80.6 °F73.4 °F79 %29.74 in3.1 miNW (320°)5.8 mphMostly Cloudy
6:30 AM80.6 °F73.4 °F79 %29.77 in3.1 miWNW (300°)5.8 mphMostly Cloudy
7:00 AM79.0 °F75.0 °F85 %29.73 in6.0 miEast (80°)2.3 mphMist
7:00 AM80.6 °F73.4 °F79 %29.77 in2.5 miNW (320°)4.6 mphMostly Cloudy
7:30 AM82.4 °F73.4 °F74 %29.80 in2.5 miNNW (330°)5.8 mphMostly Cloudy
8:00 AM82.4 °F73.4 °F74 %29.80 in2.5 miNNW (340°)4.6 mphMostly Cloudy
8:30 AM84.2 °F75.2 °F74 %29.83 in2.5 miNW (310°)3.5 mphMostly Cloudy
9:00 AM86.0 °F73.4 °F66 %29.83 in3.1 miWNW (290°)6.9 mphMostly Cloudy
9:30 AM86.0 °F73.4 °F66 %29.83 in3.1 miWNW (290°)10.4 mphMostly Cloudy
10:00 AM86.0 °F75.2 °F70 %29.83 in3.1 miWNW (300°)10.4 mphMostly Cloudy
10:30 AM86.0 °F73.4 °F66 %29.83 in3.1 miWNW (290°)10.4 mphMostly Cloudy
11:00 AM89.6 °F75.2 °F62 %29.83 in3.1 miWNW (300°)11.5 mphMostly Cloudy
11:30 AM89.6 °F75.2 °F62 %29.83 in3.1 miWNW (300°)12.7 mphMostly Cloudy
12:00 PM89.6 °F75.2 °F62 %29.83 in3.1 miWNW (290°)13.8 mphMostly Cloudy
12:30 PM89.6 °F75.2 °F62 %29.80 in4.3 miWNW (300°)13.8 mphMostly Cloudy
1:00 PM90.0 °F76.0 °F57 %29.78 in5.0 miNW (320°)12.7 mphHaze
1:00 PM89.6 °F75.2 °F62 %29.80 in4.3 miWNW (290°)13.8 mphMostly Cloudy
1:30 PM89.6 °F73.4 °F59 %29.80 in4.3 miWNW (290°)15.0 mphMostly Cloudy
2:00 PM89.6 °F75.2 °F62 %29.77 in4.3 miWest (280°)16.1 mphMostly Cloudy
2:30 PM89.6 °F75.2 °F62 %29.77 in4.3 miWNW (290°)17.3 mphMostly Cloudy
3:00 PM89.6 °F73.4 °F59 %29.74 in4.3 miWNW (290°)17.3 mphMostly Cloudy
3:30 PM89.6 °F73.4 °F59 %29.74 in4.3 miWNW (290°)16.1 mphMostly Cloudy
4:00 PM89.6 °F73.4 °F59 %29.74 in4.3 miWNW (290°)16.1 mphMostly Cloudy
4:30 PM87.8 °F73.4 °F62 %29.74 in4.3 miWNW (290°)16.1 mphMostly Cloudy
5:30 PM87.8 °F73.4 °F62 %29.74 in4.3 miWest (280°)15.0 mphMostly Cloudy
6:00 PM86.0 °F73.4 °F66 %29.74 in4.3 miWNW (290°)15.0 mphMostly Cloudy
6:30 PM86.0 °F73.4 °F66 %29.74 in4.3 miWNW (290°)12.7 mphMostly Cloudy
7:00 PM87.0 °F76.0 °F62 %29.72 in6.0 miNW (320°)6.9 mphMist
7:00 PM84.2 °F73.4 °F70 %29.77 in4.3 miWNW (290°)12.7 mphMostly Cloudy
7:30 PM84.2 °F75.2 °F74 %29.77 in4.3 miWNW (290°)12.7 mphMostly Cloudy
8:00 PM84.2 °F73.4 °F70 %29.80 in4.3 miWNW (290°)12.7 mphMostly Cloudy
8:30 PM84.2 °F73.4 °F70 %29.80 in4.3 miWest (280°)10.4 mphMostly Cloudy
9:00 PM84.2 °F73.4 °F70 %29.80 in5.0 miWNW (290°)10.4 mphMostly Cloudy
9:30 PM84.2 °F75.2 °F74 %29.83 in5.0 miWNW (290°)9.2 mphMostly Cloudy
10:00 PM84.2 °F73.4 °F70 %29.83 in5.0 miWNW (290°)9.2 mphMostly Cloudy
10:30 PM84.2 °F73.4 °F70 %29.86 in4.3 miWest (280°)9.2 mphMostly Cloudy
11:00 PM84.2 °F75.2 °F74 %29.83 in4.3 miWNW (290°)6.9 mphMostly Cloudy
11:30 PM84.2 °F75.2 °F74 %29.83 in4.3 miWNW (290°)6.9 mphMostly Cloudy
Hourly data recorded from VTSP, located miles away from Phuket, Thailand







STORIES FROM OUR PARTNERS